Location: Moscow
(55.7500°N, 37.5830°E)
Time: 18:24:46
(UTC+03:00)

ISS - Pass Details

Date: 24 March 2026
Orbit: 416 x 425 km, 51.6° (Epoch: 19 April)

Event Time Altitude Azimuth Distance (km) Brightness Sun altitude
Rises 19:36:26 0° 271° (W) 2,390 2.1 -7.1°
Reaches altitude 10° 19:38:41 10° 260° (W) 1,521 0.3 -7.4°
Maximum altitude 19:41:43 30° 198° (SSW) 795 -2.3 -7.8°
Drops below altitude 10° 19:44:44 10° 135° (SE) 1,512 -1.5 -8.2°
Enters shadow 19:45:01 - 133° (SE) 1,612 -1.3 -8.3°
